Flight Track Log - Related Links

Times and Time Zones

All times are in EDT time to prevent confusion due to time zone crossing. See the EJA729 flight status page for this flight to view local times or setup timezone preferences in your user account.

Time Position Orientation Groundspeed Altitude Reporting Facility
EDT Latitude Longitude Course Direction KTS MPH feet Rate Location/Type
Fri 11:52:56 AM 36.0197 -79.8361 223° Southwest 399 459 12,000  Level Atlanta Center
Fri 11:53:56 AM 35.9433 -79.9247 223° Southwest 382 440 12,000  Level Atlanta Center
Fri 11:54:56 AM 35.8481 -79.9450 190° South 366 421 12,000 450 Level Atlanta Center
Fri 11:55:56 AM 35.7483 -79.9525 183° South 366 421 12,900 2,350 Climbing Atlanta Center
Fri 11:56:56 AM 35.6422 -79.9656 186° South 374 430 16,700 3,058 Climbing Atlanta Center
Fri 11:57:40 AM 35.5772 -79.9717 184° South 386 444 18,200 2,400 Climbing Washington Center
Fri 11:58:41 AM 35.4667 -79.9733 181° South 392 451 20,900 2,361 Climbing Washington Center
Fri 11:59:42 AM 35.3867 -79.8747 135° Southeast 356 410 23,000 1,059 Climbing Washington Center
Fri 12:00:40 PM 35.3097 -79.7483 127° Southeast 394 453 23,000  Level Washington Center
Fri 12:01:40 PM 35.2036 -79.6769 151° Southeast 421 484 23,000  Level Washington Center
Fri 12:02:41 PM 35.0889 -79.6178 157° South 433 498 23,000 -793 Level Washington Center
Fri 12:03:41 PM 34.9781 -79.5642 158° South 441 507 21,400 -1,444 Descending Washington Center
Fri 12:05:48 PM 34.7450 -79.4489 158° South 400 460 18,500 -1,219 Descending Jacksonville Center
Fri 12:06:48 PM 34.6433 -79.4000 158° South 395 455 17,600 -1,041 Descending Jacksonville Center
Fri 12:07:49 PM 34.5417 -79.3461 156° South 395 455 16,400 -1,250 Descending Jacksonville Center
Fri 12:08:48 PM 34.4425 -79.3025 160° South 395 455 15,100 -1,261 Descending Jacksonville Center
Fri 12:09:48 PM 34.3411 -79.2536 158° South 395 455 13,900 -1,488 Descending Jacksonville Center
Fri 12:10:49 PM 34.2478 -79.2075 158° South 390 449 12,100 -1,800 Descending Jacksonville Center
Fri 12:11:48 PM 34.1631 -79.1658 158° South 366 421 10,300 -1,815 Descending Jacksonville Center
Fri 12:12:48 PM 34.0892 -79.1289 158° South 318 366 8,500 -1,900 Descending Jacksonville Center
Fri 12:13:48 PM 34.0172 -79.0944 158° South 293 337 6,500 -2,000 Descending Jacksonville Center
Fri 12:14:48 PM 33.9472 -79.0625 159° South 279 321 4,500 -1,250 Descending Jacksonville Center
Fri 12:15:48 PM 33.8817 -79.0303 158° South 267 307 4,000 -850 Descending Jacksonville Center
Fri 12:16:48 PM 33.8139 -79.0008 160° South 262 302 2,800 -1,150 Descending Jacksonville Center
Fri 12:17:48 PM 33.7483 -78.9736 161° South 257 296 1,700 -650 Descending Jacksonville Center
Fri 12:18:48 PM 33.6939 -78.9636 171° South 252 290 1,500 -200 Descending Jacksonville Center
Fri 12:20:00 PM 33.6797 -78.9283 162° South  Level Estimated
Fri 12:27:00 PM 33.6797 -78.9283 162° South  Level Estimated
Fri 12:28:00 PM 33.6797 -78.9283 162° South  Level Estimated

Login

Don't have an account? Register now (free) for customized features, flight alerts, and more!